TimeEDT,TemperatureF,Dew PointF,Humidity,Sea Level PressureIn,VisibilityMPH,Wind Direction,Wind SpeedMPH,Gust SpeedMPH,PrecipitationIn,Events,Conditions,WindDirDegrees,DateUTC
12:14 AM,68.0,64.4,88,29.95,10.0,Calm,Calm,-,N/A,,Clear,0,2013-07-21 04:14:00
12:35 AM,66.2,62.6,88,29.94,10.0,Calm,Calm,-,N/A,,Clear,0,2013-07-21 04:35:00
12:55 AM,66.2,64.4,94,29.95,10.0,Calm,Calm,-,N/A,,Clear,0,2013-07-21 04:55:00
1:14 AM,68.0,64.4,88,29.95,10.0,Calm,Calm,-,N/A,,Clear,0,2013-07-21 05:14:00
1:35 AM,68.0,64.4,88,29.95,10.0,Calm,Calm,-,N/A,,Clear,0,2013-07-21 05:35:00
1:54 AM,68.0,64.4,88,29.95,10.0,Calm,Calm,-,N/A,,Clear,0,2013-07-21 05:54:00
2:15 AM,66.2,64.4,94,29.94,10.0,Calm,Calm,-,N/A,,Clear,0,2013-07-21 06:15:00
2:35 AM,68.0,64.4,88,29.94,10.0,Calm,Calm,-,N/A,,Clear,0,2013-07-21 06:35:00
2:54 AM,68.0,64.4,88,29.94,10.0,NNE,3.5,-,N/A,,Clear,30,2013-07-21 06:54:00
3:15 AM,68.0,64.4,88,29.95,10.0,NE,4.6,-,N/A,,Clear,40,2013-07-21 07:15:00
3:35 AM,68.0,62.6,83,29.95,10.0,NE,5.8,-,N/A,,Clear,40,2013-07-21 07:35:00
3:54 AM,66.2,62.6,88,29.96,10.0,NE,3.5,-,N/A,,Clear,50,2013-07-21 07:54:00
4:15 AM,66.2,62.6,88,29.95,10.0,NE,5.8,-,N/A,,Clear,40,2013-07-21 08:15:00
4:35 AM,66.2,62.6,88,29.96,10.0,Calm,Calm,-,N/A,,Clear,0,2013-07-21 08:35:00
4:54 AM,66.2,62.6,88,29.95,10.0,NNE,4.6,-,N/A,,Clear,30,2013-07-21 08:54:00
5:15 AM,66.2,62.6,88,29.96,10.0,NE,4.6,-,N/A,,Scattered Clouds,40,2013-07-21 09:15:00
5:35 AM,66.2,62.6,88,29.96,10.0,NE,3.5,-,N/A,,Scattered Clouds,50,2013-07-21 09:35:00
5:54 AM,66.2,60.8,83,29.96,10.0,Calm,Calm,-,N/A,,Mostly Cloudy,0,2013-07-21 09:54:00
6:15 AM,64.4,60.8,88,29.97,10.0,NE,5.8,-,N/A,,Overcast,50,2013-07-21 10:15:00
6:34 AM,64.4,60.8,88,29.97,10.0,East,3.5,-,N/A,,Mostly Cloudy,80,2013-07-21 10:34:00
6:55 AM,64.4,60.8,88,29.97,10.0,Calm,Calm,-,N/A,,Scattered Clouds,0,2013-07-21 10:55:00
7:15 AM,64.4,60.8,88,29.98,10.0,Calm,Calm,-,N/A,,Clear,0,2013-07-21 11:15:00
7:35 AM,64.4,60.8,88,29.99,10.0,Calm,Calm,-,N/A,,Clear,0,2013-07-21 11:35:00
7:55 AM,64.4,62.6,94,29.99,10.0,Calm,Calm,-,N/A,,Clear,0,2013-07-21 11:55:00
8:15 AM,66.2,62.6,88,29.99,10.0,Calm,Calm,-,N/A,,Clear,0,2013-07-21 12:15:00
8:34 AM,66.2,62.6,88,30.00,10.0,Calm,Calm,-,N/A,,Clear,0,2013-07-21 12:34:00
8:55 AM,69.8,64.4,83,29.99,10.0,East,3.5,-,N/A,,Clear,80,2013-07-21 12:55:00
9:15 AM,69.8,64.4,83,29.99,10.0,East,4.6,-,N/A,,Clear,80,2013-07-21 13:15:00
9:34 AM,71.6,66.2,83,30.00,10.0,Calm,Calm,-,N/A,,Clear,0,2013-07-21 13:34:00
9:55 AM,71.6,66.2,83,29.99,10.0,ESE,4.6,-,N/A,,Clear,110,2013-07-21 13:55:00
10:14 AM,73.4,66.2,78,30.00,10.0,East,3.5,-,N/A,,Clear,90,2013-07-21 14:14:00
10:35 AM,73.4,66.2,78,30.00,10.0,ESE,3.5,-,N/A,,Clear,110,2013-07-21 14:35:00
10:55 AM,75.2,66.2,73,30.00,10.0,Calm,Calm,-,N/A,,Clear,0,2013-07-21 14:55:00
11:14 AM,75.2,68.0,78,30.00,10.0,ESE,3.5,-,N/A,,Clear,120,2013-07-21 15:14:00
11:35 AM,77.0,68.0,74,30.00,10.0,East,3.5,-,N/A,,Clear,100,2013-07-21 15:35:00
11:55 AM,78.8,66.2,65,30.00,10.0,South,5.8,-,N/A,,Clear,170,2013-07-21 15:55:00
12:14 PM,78.8,68.0,69,30.00,10.0,Calm,Calm,-,N/A,,Scattered Clouds,0,2013-07-21 16:14:00
12:35 PM,78.8,66.2,65,29.99,10.0,SE,3.5,-,N/A,,Scattered Clouds,140,2013-07-21 16:35:00
12:55 PM,80.6,66.2,61,29.99,10.0,SE,4.6,-,N/A,,Clear,140,2013-07-21 16:55:00
1:14 PM,78.8,68.0,69,29.99,10.0,SE,3.5,-,N/A,,Scattered Clouds,140,2013-07-21 17:14:00
1:35 PM,80.6,66.2,61,29.98,10.0,SE,5.8,-,N/A,,Scattered Clouds,130,2013-07-21 17:35:00
1:55 PM,80.6,66.2,61,29.98,10.0,South,5.8,-,N/A,,Scattered Clouds,170,2013-07-21 17:55:00
2:14 PM,80.6,66.2,61,29.98,10.0,SW,4.6,-,N/A,,Scattered Clouds,220,2013-07-21 18:14:00
2:35 PM,82.4,66.2,58,29.98,10.0,Calm,Calm,-,N/A,,Scattered Clouds,0,2013-07-21 18:35:00
2:55 PM,82.4,64.4,54,29.97,10.0,West,3.5,-,N/A,,Scattered Clouds,270,2013-07-21 18:55:00
3:15 PM,82.4,64.4,54,29.97,10.0,Calm,Calm,-,N/A,,Scattered Clouds,0,2013-07-21 19:15:00
3:35 PM,82.4,64.4,54,29.96,10.0,Calm,Calm,-,N/A,,Scattered Clouds,0,2013-07-21 19:35:00
3:54 PM,82.4,66.2,58,29.95,10.0,ENE,8.1,-,N/A,,Mostly Cloudy,60,2013-07-21 19:54:00
4:15 PM,80.6,66.2,61,29.95,10.0,ENE,5.8,-,N/A,,Mostly Cloudy,60,2013-07-21 20:15:00
4:35 PM,80.6,66.2,61,29.94,10.0,East,6.9,-,N/A,,Mostly Cloudy,80,2013-07-21 20:35:00
4:54 PM,80.6,66.2,61,29.93,10.0,ENE,4.6,-,N/A,,Mostly Cloudy,70,2013-07-21 20:54:00
5:15 PM,80.6,66.2,61,29.93,10.0,ENE,4.6,-,N/A,,Scattered Clouds,70,2013-07-21 21:15:00
5:35 PM,82.4,66.2,58,29.92,10.0,East,5.8,-,N/A,,Clear,100,2013-07-21 21:35:00
5:54 PM,82.4,64.4,54,29.92,10.0,SE,5.8,-,N/A,,Clear,140,2013-07-21 21:54:00
6:15 PM,80.6,64.4,58,29.91,10.0,ESE,5.8,-,N/A,,Scattered Clouds,120,2013-07-21 22:15:00
6:35 PM,80.6,64.4,58,29.91,10.0,ESE,5.8,-,N/A,,Scattered Clouds,120,2013-07-21 22:35:00
6:54 PM,80.6,64.4,58,29.91,10.0,ESE,6.9,-,N/A,,Clear,110,2013-07-21 22:54:00
7:15 PM,80.6,64.4,58,29.90,10.0,SE,6.9,-,N/A,,Clear,140,2013-07-21 23:15:00
7:35 PM,78.8,64.4,61,29.91,10.0,SE,4.6,-,N/A,,Clear,130,2013-07-21 23:35:00
7:54 PM,78.8,64.4,61,29.91,10.0,East,4.6,-,N/A,,Scattered Clouds,80,2013-07-21 23:54:00
8:15 PM,77.0,66.2,69,29.92,10.0,ESE,5.8,-,N/A,,Scattered Clouds,110,2013-07-22 00:15:00
8:34 PM,77.0,66.2,69,29.92,10.0,ESE,5.8,-,N/A,,Scattered Clouds,110,2013-07-22 00:34:00
8:54 PM,77.0,66.2,69,29.92,10.0,East,5.8,-,N/A,,Clear,100,2013-07-22 00:54:00
9:15 PM,75.2,66.2,73,29.92,10.0,ESE,8.1,-,N/A,,Clear,110,2013-07-22 01:15:00
9:34 PM,75.2,66.2,73,29.91,10.0,ESE,5.8,-,N/A,,Clear,120,2013-07-22 01:34:00
9:54 PM,75.2,66.2,73,29.92,10.0,ESE,6.9,-,N/A,,Clear,110,2013-07-22 01:54:00
10:15 PM,75.2,66.2,73,29.93,10.0,ESE,5.8,-,N/A,,Scattered Clouds,110,2013-07-22 02:15:00
10:34 PM,75.2,66.2,73,29.94,10.0,ESE,5.8,-,N/A,,Scattered Clouds,120,2013-07-22 02:34:00
10:54 PM,75.2,66.2,73,29.94,10.0,SE,6.9,-,N/A,,Mostly Cloudy,130,2013-07-22 02:54:00
11:15 PM,75.2,66.2,73,29.93,10.0,SE,8.1,-,N/A,,Scattered Clouds,130,2013-07-22 03:15:00
11:34 PM,75.2,66.2,73,29.93,10.0,SE,8.1,-,N/A,,Clear,130,2013-07-22 03:34:00
11:55 PM,75.2,66.2,73,29.93,10.0,SE,8.1,-,N/A,,Scattered Clouds,140,2013-07-22 03:55:00